Regional Weather Roundup
Issued by NWS

Home | Current Version | Previous Version | Graphics & Text | Print | Product List | Glossary On
Versions: 1 2 3 4 5 6 7 8 9 10 11 12 13 14 15 16 17 18 19 20 21 22 23 24 25 26 27 28 29 30 31 32 33 34 35 36 37 38 39 40 41 42 43 44 45 46 47 48 49 50
988
ASUS43 KTOP 070008
RWRKS

WEATHER ROUNDUP FOR KANSAS
NATIONAL WEATHER SERVICE GOODLAND KS
600 PM CST SAT FEB 06 2016

NOTE:  "FAIR" INDICATES FEW OR NO CLOUDS BELOW 12,000 FEET WITH NO
SIGNIFICANT WEATHER AND/OR OBSTRUCTIONS TO VISIBILITY.

KSZ001>006-013>018-027>032-041>047-070100-
NORTHWEST KANSAS

CITY           SKY/WX    TMP DP  RH WIND       PRES   REMARKS
GOODLAND       CLOUDY    39  26  59 SW15      30.08F WCI  31
6HR MIN TEMP:  39; 6HR MAX TEMP:  42;

HAYS           CLOUDY    39  25  56 SW6       30.13F
HILL CITY      CLOUDY    39  29  67 SW7       30.09F
6HR MIN TEMP:  35; 6HR MAX TEMP:  43;

RUSSELL        CLEAR     39  29  67 S7        30.12F
6HR MIN TEMP:  32; 6HR MAX TEMP:  44;

$$

KSZ061>065-074>080-084>089-070100-
SOUTHWEST KANSAS

CITY           SKY/WX    TMP DP  RH WIND       PRES   REMARKS
DODGE CITY     CLOUDY    46  16  30 S8        30.16F
6HR MIN TEMP:  44; 6HR MAX TEMP:  52;

ELKHART          N/A     53  11  18 S5          N/A
GARDEN CITY    CLOUDY    45  19  35 S9        30.13F
6HR MIN TEMP:  42; 6HR MAX TEMP:  54;

GREAT BEND     CLOUDY    43  21  42 SW8       30.16S
LIBERAL        CLEAR     48  12  23 S9        30.16F
PRATT          CLOUDY    39  23  51 SW7       30.18S
6HR MIN TEMP:  39; 6HR MAX TEMP:  51;

$$

KSZ066>073-081>083-090>101-070100-
SOUTHEAST KANSAS

CITY           SKY/WX    TMP DP  RH WIND       PRES   REMARKS
CHANUTE        PTCLDY    44  27  51 SW8       30.23S
6HR MIN TEMP:  44; 6HR MAX TEMP:  51;

COFFEYVILLE    CLEAR     47  26  44 W8        30.26S
6HR MIN TEMP:  47; 6HR MAX TEMP:  53;

HUTCHINSON     CLEAR     46  21  37 SW7       30.18F
6HR MIN TEMP:  43; 6HR MAX TEMP:  53;

MEDICINE LODGE   N/A     48  17  29 S7        30.20F
NEWTON         CLEAR     43  25  49 S8        30.20F
PARSONS        CLEAR     46  26  45 W7        30.25S
6HR MIN TEMP:  46; 6HR MAX TEMP:  52;

WICHITA INTL   PTCLDY    44  26  49 S12       30.20F
6HR MIN TEMP:  44; 6HR MAX TEMP:  51;

WICHITA JABRA  CLEAR     44  25  47 S9        30.20F
6HR MIN TEMP:  43; 6HR MAX TEMP:  50;

WICHITA MCCONL CLEAR     44  27  51 S12       30.21F
WINFIELD       CLEAR     40  27  59 SW7       30.25F
6HR MIN TEMP:  40; 6HR MAX TEMP:  51;

$$

KSZ007>012-019>026-033>040-048>060-102>105-070100-
NORTHEAST KANSAS

CITY           SKY/WX    TMP DP  RH WIND       PRES   REMARKS
CONCORDIA      CLOUDY    41  24  51 SW9       30.11F
6HR MIN TEMP:  39; 6HR MAX TEMP:  48;

EMPORIA        CLEAR     40  26  57 SW7       30.19F
6HR MIN TEMP:  40; 6HR MAX TEMP:  50;

LAWRENCE       CLEAR     44  28  53 SW8       30.18F
6HR MIN TEMP:  43; 6HR MAX TEMP:  50;

MANHATTAN      PTCLDY    42  26  53 SW7       30.16F
6HR MIN TEMP:  42; 6HR MAX TEMP:  50;

MARYSVILLE     CLOUDY    43  28  56 S8        30.09F
OLATHE IND     CLEAR     41  28  60 SW8       30.19F
6HR MIN TEMP:  41; 6HR MAX TEMP:  48; 6HR PCP: TRACE;

OLATHE EXE     CLEAR     43  27  53 SW6       30.19F
6HR MIN TEMP:  42; 6HR MAX TEMP:  47;

SALINA         CLOUDY    47  23  38 SW8       30.16F
6HR MIN TEMP:  45; 6HR MAX TEMP:  54;

TOPEKA BILLARD CLEAR     47  27  45 SW7       30.17F
6HR MIN TEMP:  42; 6HR MAX TEMP:  50;

TOPEKA FORBES  CLEAR     43  28  55 SW7       30.17F
6HR MIN TEMP:  43; 6HR MAX TEMP:  51;

$$




USA.gov is the U.S. government's official web portal to all federal, state and local government web resources and services.